• în România
  • Lista ţărilor
  • Pe 7 zile
  • Temperatura apei
  • Hartă satelitară
  • Meteo pe hartă
  • Widget-uri
  • user-avatar
    Intrare

    Meteo pe oră la Lubango

    Astăzi, 23 Iunie, Vineri

    Timp Temperatura Precipitaţii Vânt Presiune Umiditate
    00:00 +8°C° 0 mm 2 m/s 608 mmHg 46%
    01:00 +7°C° 0 mm 2 m/s 608 mmHg 44%
    02:00 +7°C° 0 mm 2 m/s 608 mmHg 44%
    03:00 +7°C° 0 mm 2 m/s 608 mmHg 43%
    04:00 +7°C° 0 mm 2 m/s 608 mmHg 43%
    05:00 +7°C° 0 mm 2 m/s 608 mmHg 43%
    06:00 +7°C° 0 mm 2 m/s 608 mmHg 43%
    07:00 +7°C° 0 mm 2 m/s 608 mmHg 42%
    08:00 +11°C° 0 mm 3 m/s 610 mmHg 35%
    09:00 +14°C° 0 mm 3 m/s 611 mmHg 29%
    10:00 +19°C° 0 mm 4 m/s 612 mmHg 22%
    11:00 +20°C° 0 mm 3 m/s 612 mmHg 20%
    12:00 +22°C° 0 mm 3 m/s 612 mmHg 18%
    13:00 +25°C° 0 mm 3 m/s 612 mmHg 16%
    14:00 +25°C° 0 mm 2 m/s 612 mmHg 16%
    15:00 +24°C° 0 mm 2 m/s 611 mmHg 15%
    16:00 +24°C° 0 mm 1 m/s 611 mmHg 15%
    17:00 +20°C° 0 mm 1 m/s 609 mmHg 25%
    18:00 +14°C° 0 mm 1 m/s 608 mmHg 35%
    19:00 +10°C° 0 mm 1 m/s 606 mmHg 45%
    20:00 +9°C° 0 mm 1 m/s 606 mmHg 48%
    21:00 +8°C° 0 mm 1 m/s 606 mmHg 50%
    22:00 +8°C° 0 mm 1 m/s 606 mmHg 52%
    23:00 +8°C° 0 mm 1 m/s 606 mmHg 48%

    Mâine, 24 Iunie, Sâmbătă

    Timp Temperatura Precipitaţii Vânt Presiune Umiditate
    00:00 +7°C° 0 mm 2 m/s 606 mmHg 44%
    01:00 +7°C° 0 mm 2 m/s 607 mmHg 40%
    02:00 +8°C° 0 mm 2 m/s 607 mmHg 41%
    03:00 +8°C° 0 mm 2 m/s 607 mmHg 42%
    04:00 +8°C° 0 mm 2 m/s 607 mmHg 43%
    05:00 +8°C° 0 mm 2 m/s 607 mmHg 44%
    06:00 +8°C° 0 mm 3 m/s 607 mmHg 45%
    07:00 +8°C° 0 mm 3 m/s 607 mmHg 46%
    08:00 +11°C° 0 mm 3 m/s 609 mmHg 39%
    09:00 +16°C° 0 mm 3 m/s 611 mmHg 32%
    10:00 +20°C° 0 mm 4 m/s 612 mmHg 25%
    11:00 +21°C° 0 mm 3 m/s 612 mmHg 22%
    12:00 +24°C° 0 mm 3 m/s 612 mmHg 19%
    13:00 +26°C° 0 mm 3 m/s 612 mmHg 17%
    14:00 +25°C° 0 mm 2 m/s 612 mmHg 16%
    15:00 +25°C° 0 mm 2 m/s 611 mmHg 16%
    16:00 +25°C° 0 mm 2 m/s 611 mmHg 15%
    17:00 +19°C° 0 mm 2 m/s 609 mmHg 30%
    18:00 +14°C° 0 mm 1 m/s 607 mmHg 45%
    19:00 +9°C° 0 mm 1 m/s 605 mmHg 60%
    20:00 +8°C° 0 mm 1 m/s 605 mmHg 65%
    21:00 +7°C° 0 mm 0 m/s 605 mmHg 70%
    22:00 +6°C° 0 mm 0 m/s 605 mmHg 74%
    23:00 +6°C° 0 mm 0 m/s 605 mmHg 74%

    Poimâine, 25 Iunie, Duminică

    Timp Temperatura Precipitaţii Vânt Presiune Umiditate
    00:00 +5°C° 0 mm 0 m/s 605 mmHg 73%
    01:00 +5°C° 0 mm 0 m/s 605 mmHg 73%
    02:00 +6°C° 0 mm 1 m/s 604 mmHg 70%
    03:00 +6°C° 0 mm 1 m/s 604 mmHg 66%
    04:00 +6°C° 0 mm 1 m/s 604 mmHg 63%
    05:00 +7°C° 0 mm 1 m/s 604 mmHg 60%
    06:00 +7°C° 0 mm 1 m/s 605 mmHg 57%
    07:00 +8°C° 0 mm 1 m/s 605 mmHg 54%
    08:00 +12°C° 0 mm 1 m/s 608 mmHg 42%
    09:00 +18°C° 0 mm 1 m/s 610 mmHg 31%
    10:00 +23°C° 0 mm 1 m/s 612 mmHg 19%
    11:00 +24°C° 0 mm 2 m/s 612 mmHg 18%
    12:00 +25°C° 0 mm 3 m/s 611 mmHg 17%
    13:00 +26°C° 0 mm 3 m/s 611 mmHg 15%
    14:00 +26°C° 0 mm 3 m/s 611 mmHg 16%
    15:00 +26°C° 0 mm 3 m/s 610 mmHg 16%
    16:00 +25°C° 0 mm 3 m/s 610 mmHg 16%
    17:00 +19°C° 0 mm 2 m/s 608 mmHg 30%
    18:00 +15°C° 0 mm 2 m/s 606 mmHg 43%
    19:00 +10°C° 0 mm 1 m/s 605 mmHg 57%
    20:00 +9°C° 0 mm 1 m/s 605 mmHg 62%
    21:00 +8°C° 0 mm 1 m/s 605 mmHg 67%
    22:00 +7°C° 0 mm 0 m/s 605 mmHg 72%
    23:00 +7°C° 0 mm 1 m/s 605 mmHg 72%

    26 Iunie, Luni

    Timp Temperatura Precipitaţii Vânt Presiune Umiditate
    00:00 +7°C° 0 mm 1 m/s 604 mmHg 72%
    01:00 +7°C° 0 mm 1 m/s 604 mmHg 72%
    02:00 +7°C° 0 mm 1 m/s 604 mmHg 72%
    03:00 +7°C° 0 mm 1 m/s 604 mmHg 71%
    04:00 +6°C° 0 mm 1 m/s 603 mmHg 71%
    05:00 +7°C° 0 mm 1 m/s 604 mmHg 66%
    06:00 +7°C° 0 mm 1 m/s 605 mmHg 62%
    07:00 +8°C° 0 mm 1 m/s 605 mmHg 57%
    08:00 +13°C° 0 mm 1 m/s 608 mmHg 45%
    09:00 +19°C° 0 mm 1 m/s 610 mmHg 32%
    10:00 +24°C° 0 mm 1 m/s 612 mmHg 20%
    11:00 +25°C° 0 mm 2 m/s 612 mmHg 19%
    12:00 +26°C° 0 mm 2 m/s 612 mmHg 18%
    13:00 +27°C° 0 mm 3 m/s 611 mmHg 16%
    14:00 +27°C° 0 mm 3 m/s 611 mmHg 17%
    15:00 +26°C° 0 mm 3 m/s 611 mmHg 17%
    16:00 +26°C° 0 mm 3 m/s 610 mmHg 17%
    17:00 +20°C° 0 mm 2 m/s 609 mmHg 27%
    18:00 +16°C° 0 mm 2 m/s 608 mmHg 37%
    19:00 +12°C° 0 mm 1 m/s 607 mmHg 46%
    20:00 +11°C° 0 mm 1 m/s 607 mmHg 50%
    21:00 +10°C° 0 mm 1 m/s 607 mmHg 53%
    22:00 +9°C° 0 mm 1 m/s 607 mmHg 56%
    23:00 +9°C° 0 mm 1 m/s 607 mmHg 56%

    27 Iunie, Marţi

    Timp Temperatura Precipitaţii Vânt Presiune Umiditate
    00:00 +9°C° 0 mm 1 m/s 607 mmHg 57%
    01:00 +9°C° 0 mm 1 m/s 606 mmHg 57%
    02:00 +8°C° 0 mm 1 m/s 606 mmHg 60%
    03:00 +8°C° 0 mm 1 m/s 606 mmHg 62%
    04:00 +8°C° 0 mm 1 m/s 606 mmHg 64%
    05:00 +8°C° 0 mm 1 m/s 606 mmHg 63%
    06:00 +8°C° 0 mm 1 m/s 606 mmHg 62%
    07:00 +8°C° 0 mm 1 m/s 607 mmHg 60%
    08:00 +13°C° 0 mm 1 m/s 609 mmHg 46%
    09:00 +20°C° 0 mm 1 m/s 612 mmHg 32%
    10:00 +25°C° 0 mm 1 m/s 614 mmHg 19%
    11:00 +26°C° 0 mm 1 m/s 614 mmHg 17%
    12:00 +27°C° 0 mm 1 m/s 613 mmHg 16%
    13:00 +28°C° 0 mm 2 m/s 613 mmHg 15%
    14:00 +27°C° 0 mm 2 m/s 613 mmHg 15%
    15:00 +27°C° 0 mm 2 m/s 612 mmHg 16%
    16:00 +26°C° 0 mm 3 m/s 612 mmHg 16%
    17:00 +21°C° 0 mm 2 m/s 610 mmHg 22%
    18:00 +17°C° 0 mm 2 m/s 609 mmHg 28%
    19:00 +13°C° 0 mm 2 m/s 608 mmHg 33%
    20:00 +12°C° 0 mm 2 m/s 608 mmHg 35%
    21:00 +11°C° 0 mm 1 m/s 608 mmHg 36%
    22:00 +10°C° 0 mm 1 m/s 608 mmHg 37%
    23:00 +10°C° 0 mm 1 m/s 608 mmHg 39%

    28 Iunie, Miercuri

    Timp Temperatura Precipitaţii Vânt Presiune Umiditate
    00:00 +9°C° 0 mm 1 m/s 607 mmHg 40%
    01:00 +9°C° 0 mm 1 m/s 607 mmHg 41%
    02:00 +9°C° 0 mm 1 m/s 607 mmHg 44%
    03:00 +8°C° 0 mm 1 m/s 606 mmHg 46%
    04:00 +8°C° 0 mm 1 m/s 606 mmHg 48%
    05:00 +8°C° 0 mm 1 m/s 606 mmHg 47%
    06:00 +9°C° 0 mm 1 m/s 607 mmHg 46%
    07:00 +9°C° 0 mm 1 m/s 607 mmHg 45%
    08:00 +14°C° 0 mm 1 m/s 610 mmHg 35%
    09:00 +20°C° 0 mm 1 m/s 612 mmHg 25%
    10:00 +25°C° 0 mm 1 m/s 614 mmHg 15%
    11:00 +27°C° 0 mm 1 m/s 614 mmHg 14%
    12:00 +28°C° 0 mm 1 m/s 614 mmHg 13%
    13:00 +29°C° 0 mm 1 m/s 614 mmHg 12%
    14:00 +28°C° 0 mm 2 m/s 613 mmHg 12%
    15:00 +27°C° 0 mm 2 m/s 612 mmHg 12%
    16:00 +26°C° 0 mm 3 m/s 612 mmHg 13%
    17:00 +21°C° 0 mm 2 m/s 610 mmHg 18%
    18:00 +17°C° 0 mm 2 m/s 609 mmHg 23%
    19:00 +13°C° 0 mm 2 m/s 608 mmHg 28%
    20:00 +12°C° 0 mm 2 m/s 608 mmHg 30%
    21:00 +10°C° 0 mm 2 m/s 608 mmHg 33%
    22:00 +10°C° 0 mm 1 m/s 607 mmHg 36%
    23:00 +10°C° 0 mm 1 m/s 607 mmHg 36%
    Arată mai mult